Regional Weather Roundup
Issued by NWS Sterling, VA

Home | Current Version | Previous Version | Graphics & Text | Print | Product List | Glossary On
Versions: 1 2 3 4 5 6 7 8 9 10 11 12 13 14 15 16 17 18 19 20 21 22 23 24 25 26 27
000
ASUS41 KLWX 242310
RWRLWX

REGIONAL WEATHER ROUNDUP
NATIONAL WEATHER SERVICE BALTIMORE MD/WASHINGTON DC
700 PM EDT TUE MAY 24 2016

Note: "FAIR" indicates few or no clouds below 12,000 feet
with no significant weather and/or obstructions to visibility.
 TC=TEMPERATURE CELSIUS

 * =Non NWS site. Station does not report precipitation (e.g. rain,
    snow, etc.), thunder, or fog.

DCZ001-MDZ009-015-VAZ040>042-051-053>054-250000-
WASHINGTON METRO

CITY           SKY/WX    TMP DP  RH WIND       PRES   REMARKS
WASHINGTON NAT FAIR      82  48  30 NW13      29.99R
DULLES         FAIR      80  47  31 NW10      30.00R
ANDREWS AFB    SUNNY     79  50  35 NW6       29.98S
FT BELVOIR     FAIR      81  48  31 NW12      29.99R
QUANTICO       PTSUNNY   80  53  39 W3        30.00R
COLLEGE PARK*  PTSUNNY   81  46  30 N6        29.98R
LEESBURG*      FAIR      81  52  36 NW13G18   30.01R
MANASSAS*      SUNNY     81  46  30 NW12      30.00R

$$

MDZ006>007-011-014-250000-
BALTIMORE METRO

CITY           SKY/WX    TMP DP  RH WIND       PRES   REMARKS
BWI AIRPORT    PTSUNNY   79  48  33 W7        29.97R
MD SCIENCE CTR   N/A     82  41  23 MISG      29.96R
MARTIN STATE   SUNNY     82  48  30 W7        29.97R
ANNAPOLIS      SUNNY     81  49  32 W5        29.97R
FORT MEADE*    SUNNY     73  52  46 W5        30.00R

$$

MDZ012-015-019>023-250000-
MARYLAND EASTERN SHORE

CITY           SKY/WX    TMP DP  RH WIND       PRES   REMARKS
OCEAN CITY     SUNNY     70  59  68 SW7       30.00R
SALISBURY      SUNNY     76  56  49 SW8       29.99R
BAY BRIDGE AP* SUNNY     77  55  47 W7        29.97S
CAMBRIDGE*     SUNNY     77  50  38 W3        29.99R
EASTON*        MOSUNNY   81  59  47 CALM      30.02R

$$

MDZ017>025-250000-
SOUTHERN MARYLAND

CITY           SKY/WX    TMP DP  RH WIND       PRES   REMARKS
PATUXENT RIVER MOSUNNY   79  51  37 SW7       29.99S
ST INIGOES     SUNNY     78  53  41 W5        30.00R
LEONARDTOWN*   NOT AVBL

$$

MDZ003>005-250000-
NORTH CENTRAL MARYLAND

CITY           SKY/WX    TMP DP  RH WIND       PRES   REMARKS
FREDERICK*     SUNNY     81  50  34 NW12      30.02R
HAGERSTOWN APT SUNNY     79  48  33 NW8       30.01R
WESTMINSTER*   SUNNY     82  73  74 NW10G16   30.00R

$$

MDZ501>502-250000-
WESTERN MARYLAND

CITY           SKY/WX    TMP DP  RH WIND       PRES   REMARKS
OAKLAND*       NOT AVBL
CUMBERLAND*    SUNNY     81  45  28 NW6       30.06S

$$

VAZ025>031-250000-
SHENANDOAH VALLEY

CITY           SKY/WX    TMP DP  RH WIND       PRES   REMARKS
WINCHESTER*    FAIR      79  50  36 NW10      30.02S
FRONT ROYAL*   FAIR      77  50  38 NW6       30.02R
LURAY*         FAIR      79  46  31 NW5       30.04R
NEW MARKET*    FAIR      78  49  36 CALM      30.03R
STAUNTON*      FAIR      78  48  35 NW6       30.07S
WAYNESBORO*    FAIR      78  45  31 N6        30.07R

$$

WVZ021-048>050-054>055-250000-
EASTERN WEST VIRGINIA PANHANDLE

CITY           SKY/WX    TMP DP  RH WIND       PRES   REMARKS
MARTINSBURG    FAIR      78  48  34 NW8       30.00R
PETERSBURG*    FAIR      78  53  41 W7        30.06R

$$

VAZ036>039-050-250000-
CENTRAL FOOTHILLS

CITY           SKY/WX    TMP DP  RH WIND       PRES   REMARKS
CHARLOTTESVILL PTSUNNY   79  54  41 SW6       30.02R
CULPEPER*      FAIR      81  50  33 NW6       30.02R
ORANGE*        FAIR      81  50  34 CALM      30.03R
GORDONSVILLE*  CLOUDY    80  56  43 CALM      30.02R
WARRENTON*     FAIR      79  44  28 NW6       30.01R

$$

VAZ055>057-250000-
NORTH AND CENTRAL PIEDMONT

CITY           SKY/WX    TMP DP  RH WIND       PRES   REMARKS
FREDERICKSBRG* PTSUNNY   82  54  36 CALM      30.00R
STAFFORD*      FAIR      79  56  45 CALM      30.05R

$$

NCZ024-NYZ072-PAZ021-071-VAZ022-071-250000-
OTHER REGIONAL OBSERVATIONS

CITY           SKY/WX    TMP DP  RH WIND       PRES   REMARKS
NEW YORK CITY  CLOUDY    69  49  48 CALM      29.95R
PHILADELPHIA   CLOUDY    81  43  26 W14       29.92R
PITTSBURGH     MOSUNNY   78  46  32 W10       30.04S
ROANOKE        FAIR      79  48  33 NW7       30.09S
RICHMOND       FAIR      78  57  48 S8        30.02R
RALEIGH        MOSUNNY   79  52  38 W7        30.08F

$$

ANZ530>537-250000-
MARINE OBSERVATIONS

STATION/POSITION TIME  TEMP    WIND        PRES
                       AIR SEA DIR/SP/G
                 (UTC) (F)     (DEG/KT/KT) (MB)
THOMAS PT LIGHT  2200   80 63  290/ 13/ 14 1016.0F
BALT KEY BRIDGE  2200   80                   N/A
COVE POINT       2200   74                   N/A
LEWISETTA        2200   80                   N/A
SOLOMONS ISLAND  2200   79                   N/A
PINEY POINT      2212          300/  6/  7   N/A

$$





USA.gov is the U.S. government's official web portal to all federal, state and local government web resources and services.